Weather History for Grove, OK

Change the Weather History Date:

Wednesday, May 13, 2009

  Actual Average (KSLG) Record (KSLG)
Temperature  
Mean Temperature 78 °F -  
Max Temperature 87 °F 73 °F 86 °F (1998)
Min Temperature 68 °F 53 °F 44 °F (1999)
Cooling Degree Days 12    
Growing Degree Days 28 (Base 50)    
Moisture  
Dew Point 68 °F    
Average Humidity 76    
Maximum Humidity 88    
Minimum Humidity 58    
Precipitation  
Precipitation 0.00 in - - ()
Sea Level Pressure  
Sea Level Pressure 29.73 in    
Wind  
Wind Speed 17 mph (South)    
Max Wind Speed 28 mph    
Max Gust Speed 38 mph    
Visibility 10 miles    
Events      
Averages and records for this station are not official NWS values.
T = Trace of Precipitation, MM = Missing Value Source: NWS Daily Summary

Daily Weather History Graph

Daily Weather History Graph

Search for Another Location

Airport:

Trip Planner

Search our weather history database for the weather conditions in past years. The results will help you decide how hot, cold, wet, or windy it might be!

Date:

Astronomy

May. 13, 2009 Rise Set
Actual Time 6:13 AM CDT 8:17 PM CDT
Civil Twilight 5:44 AM CDT 8:46 PM CDT
Nautical Twilight 5:09 AM CDT 9:21 PM CDT
Astronomical Twilight 4:31 AM CDT 9:59 PM CDT
Moon No Moon Rise 9:28 AM CDT (5/13)
Length of Visible Light 15h 01m
Length of Day
14h 04m
Waning Gibbous, 82% of the Moon is Illuminated
May 13
Waning Gibbous
May 17
Last Quarter
May 24
New
May 30
First Quarter
Jun 7
Full

Hourly Weather History & Observations

Time (CDT) Temp. Heat Index Dew Point Humidity Pressure Visibility Wind Dir Wind Speed Gust Speed Precip Events Conditions
12:12 AM 68.0 °F - 64.4 °F 88% 29.80 in 10.0 mi SSE 13.8 mph 19.6 mph N/A   Clear
12:33 AM 68.0 °F - 64.4 °F 88% 29.79 in 10.0 mi SSE 15.0 mph 19.6 mph N/A   Clear
12:53 AM 68.0 °F - 64.4 °F 88% 29.79 in 10.0 mi SSE 17.3 mph 25.3 mph N/A   Clear
1:12 AM 68.0 °F - 64.4 °F 88% 29.79 in 10.0 mi SSE 17.3 mph 27.6 mph N/A   Clear
1:33 AM 68.0 °F - 64.4 °F 88% 29.78 in 10.0 mi SSE 18.4 mph - N/A   Clear
1:56 AM 68.0 °F - 64.4 °F 88% 29.79 in 10.0 mi South 18.4 mph 25.3 mph N/A   Scattered Clouds
2:14 AM 68.0 °F - 64.4 °F 88% 29.78 in 10.0 mi SSE 17.3 mph 25.3 mph N/A   Scattered Clouds
2:32 AM 68.0 °F - 64.4 °F 88% 29.75 in 10.0 mi SSE 19.6 mph 27.6 mph N/A   Mostly Cloudy
2:52 AM 68.0 °F - 64.4 °F 88% 29.74 in 10.0 mi SSE 20.7 mph 26.5 mph N/A   Mostly Cloudy
3:12 AM 68.0 °F - 64.4 °F 88% 29.74 in 10.0 mi SSE 20.7 mph 26.5 mph N/A   Mostly Cloudy
3:32 AM 68.0 °F - 64.4 °F 88% 29.72 in 10.0 mi SSE 19.6 mph 29.9 mph N/A   Scattered Clouds
3:53 AM 68.0 °F - 64.4 °F 88% 29.71 in 10.0 mi South 17.3 mph 31.1 mph N/A   Clear
4:32 AM 69.8 °F - 64.4 °F 83% 29.70 in 10.0 mi South 23.0 mph 29.9 mph N/A   Scattered Clouds
4:57 AM 69.8 °F - 66.2 °F 88% 29.68 in 10.0 mi South 19.6 mph 32.2 mph N/A   Clear
5:13 AM 69.8 °F - 66.2 °F 88% 29.68 in 10.0 mi SSE 18.4 mph 26.5 mph N/A   Clear
5:37 AM 68.0 °F - 64.4 °F 88% 29.67 in 10.0 mi SSE 15.0 mph 28.8 mph N/A   Clear
5:52 AM 68.0 °F - 64.4 °F 88% 29.68 in 10.0 mi South 20.7 mph 27.6 mph N/A   Clear
6:12 AM 69.8 °F - 66.2 °F 88% 29.69 in 10.0 mi South 17.3 mph 27.6 mph N/A   Clear
6:32 AM 71.6 °F - 66.2 °F 83% 29.72 in 10.0 mi South 11.5 mph 19.6 mph N/A   Mostly Cloudy
6:52 AM 71.6 °F - 66.2 °F 83% 29.72 in 10.0 mi South 10.4 mph 20.7 mph N/A   Scattered Clouds
7:15 AM 71.6 °F - 66.2 °F 83% 29.73 in 10.0 mi South 10.4 mph - N/A   Scattered Clouds
7:33 AM 71.6 °F - 66.2 °F 83% 29.73 in 10.0 mi SSE 11.5 mph 18.4 mph N/A   Clear
7:53 AM 73.4 °F - 69.8 °F 88% 29.72 in 10.0 mi South 15.0 mph 23.0 mph N/A   Clear
8:13 AM 73.4 °F - 69.8 °F 88% 29.73 in 10.0 mi South 12.7 mph 23.0 mph N/A   Clear
8:32 AM 73.4 °F - 69.8 °F 88% 29.74 in 10.0 mi South 13.8 mph 21.9 mph N/A   Clear
8:52 AM 73.4 °F - 68.0 °F 83% 29.73 in 10.0 mi South 15.0 mph 19.6 mph N/A   Clear
9:13 AM 75.2 °F - 69.8 °F 83% 29.73 in 10.0 mi South 13.8 mph 24.2 mph N/A   Clear
9:32 AM 75.2 °F - 68.0 °F 78% 29.73 in 10.0 mi South 17.3 mph 20.7 mph N/A   Clear
9:53 AM 75.2 °F - 68.0 °F 78% 29.74 in 10.0 mi South 20.7 mph 25.3 mph N/A   Clear
10:12 AM 78.8 °F - 69.8 °F 74% 29.75 in 10.0 mi South 18.4 mph 26.5 mph N/A   Scattered Clouds
10:32 AM 78.8 °F - 69.8 °F 74% 29.75 in 10.0 mi South 17.3 mph 24.2 mph N/A   Scattered Clouds
10:52 AM 78.8 °F - 69.8 °F 74% 29.76 in 10.0 mi South 18.4 mph 27.6 mph N/A   Scattered Clouds
11:14 AM 78.8 °F - 69.8 °F 74% 29.76 in 10.0 mi South 21.9 mph 28.8 mph N/A   Scattered Clouds
11:32 AM 78.8 °F - 69.8 °F 74% 29.76 in 10.0 mi South 19.6 mph 25.3 mph N/A   Scattered Clouds
11:52 AM 80.6 °F 83.9 °F 69.8 °F 70% 29.75 in 10.0 mi South 20.7 mph 26.5 mph N/A   Clear
12:34 PM 80.6 °F 83.2 °F 68.0 °F 65% 29.73 in 10.0 mi South 27.6 mph 33.4 mph N/A   Clear
12:54 PM 82.4 °F 86.3 °F 69.8 °F 66% 29.73 in 10.0 mi SSW 24.2 mph 34.5 mph N/A   Clear
1:17 PM 82.4 °F 86.3 °F 69.8 °F 66% 29.73 in 10.0 mi South 20.7 mph 33.4 mph N/A   Clear
1:32 PM 82.4 °F 86.3 °F 69.8 °F 66% 29.72 in 10.0 mi South 25.3 mph 38.0 mph N/A   Clear
1:52 PM 86.0 °F 91.8 °F 71.6 °F 62% 29.72 in 10.0 mi South 18.4 mph 34.5 mph N/A   Clear
2:12 PM 86.0 °F 91.8 °F 71.6 °F 62% 29.71 in 10.0 mi South 19.6 mph 29.9 mph N/A   Clear
2:32 PM 86.0 °F 91.8 °F 71.6 °F 62% 29.71 in 10.0 mi South 23.0 mph 27.6 mph N/A   Clear
2:52 PM 87.8 °F 93.8 °F 71.6 °F 58% 29.71 in 10.0 mi South 21.9 mph 27.6 mph N/A   Clear
3:12 PM 87.8 °F 93.8 °F 71.6 °F 58% 29.71 in 10.0 mi South 23.0 mph 29.9 mph N/A   Clear
3:34 PM 87.8 °F 93.8 °F 71.6 °F 58% 29.71 in 10.0 mi SSW 23.0 mph 29.9 mph N/A   Clear
3:52 PM 87.8 °F 93.8 °F 71.6 °F 58% 29.70 in 10.0 mi South 21.9 mph 31.1 mph N/A   Clear
4:14 PM 87.8 °F 93.8 °F 71.6 °F 58% 29.70 in 10.0 mi SSW 17.3 mph 32.2 mph N/A   Clear
4:33 PM 87.8 °F 93.8 °F 71.6 °F 58% 29.70 in 10.0 mi South 20.7 mph 27.6 mph N/A   Clear
4:52 PM 87.8 °F 93.8 °F 71.6 °F 58% 29.70 in 10.0 mi South 18.4 mph 28.8 mph N/A   Scattered Clouds
5:13 PM 84.2 °F 88.4 °F 69.8 °F 62% 29.71 in 10.0 mi South 17.3 mph 27.6 mph N/A   Mostly Cloudy
5:32 PM 82.4 °F 86.3 °F 69.8 °F 66% 29.73 in 10.0 mi South 15.0 mph 21.9 mph N/A   Overcast
5:53 PM 82.4 °F 86.3 °F 69.8 °F 66% 29.73 in 10.0 mi SSW 18.4 mph 24.2 mph N/A   Overcast
6:13 PM 82.4 °F 86.3 °F 69.8 °F 66% 29.73 in 10.0 mi South 12.7 mph 19.6 mph N/A   Overcast
6:33 PM 80.6 °F 83.9 °F 69.8 °F 70% 29.72 in 10.0 mi South 17.3 mph 25.3 mph N/A   Overcast
6:53 PM 80.6 °F 84.6 °F 71.6 °F 74% 29.71 in 10.0 mi South 11.5 mph 19.6 mph N/A   Overcast
7:13 PM 80.6 °F 84.6 °F 71.6 °F 74% 29.71 in 10.0 mi South 11.5 mph 23.0 mph N/A   Overcast
7:33 PM 80.6 °F 83.9 °F 69.8 °F 70% 29.72 in 10.0 mi South 10.4 mph - N/A   Overcast
7:53 PM 80.6 °F 84.6 °F 71.6 °F 74% 29.74 in 10.0 mi SSW 8.1 mph - N/A   Overcast
8:13 PM 80.6 °F 84.6 °F 71.6 °F 74% 29.75 in 10.0 mi South 9.2 mph - N/A   Overcast
8:33 PM 78.8 °F - 69.8 °F 74% 29.74 in 10.0 mi South 11.5 mph - N/A   Mostly Cloudy
8:53 PM 78.8 °F - 69.8 °F 74% 29.75 in 10.0 mi South 10.4 mph - N/A   Scattered Clouds
9:13 PM 78.8 °F - 71.6 °F 78% 29.78 in 10.0 mi South 10.4 mph - N/A   Mostly Cloudy
9:32 PM 78.8 °F - 71.6 °F 78% 29.77 in 10.0 mi South 11.5 mph - N/A   Scattered Clouds
9:52 PM 78.8 °F - 71.6 °F 78% 29.79 in 10.0 mi South 12.7 mph - N/A   Clear
10:12 PM 78.8 °F - 71.6 °F 78% 29.77 in 10.0 mi South 15.0 mph - N/A   Scattered Clouds
10:34 PM 78.8 °F - 71.6 °F 78% 29.79 in 10.0 mi South 12.7 mph - N/A Rain Light Rain
10:53 PM 77.0 °F - 71.6 °F 83% 29.87 in 10.0 mi North 3.5 mph - N/A Rain Light Rain
11:12 PM 68.0 °F - 66.2 °F 94% 29.87 in 2.5 mi NE 9.2 mph 17.3 mph 0.19 in Rain Rain
11:33 PM 62.6 °F - 62.6 °F 100% 29.89 in 10.0 mi Calm Calm - 0.19 in Rain Light Rain
11:52 PM 62.6 °F - 62.6 °F 100% 29.91 in 10.0 mi WSW 4.6 mph - 0.20 in Rain Light Rain